Regional Weather Roundup
Issued by NWS

Home | Current Version | Previous Version | Text Only | Print | Product List | Glossary On
Versions: 1 2 3 4 5 6 7 8 9 10 11 12 13 14 15 16 17 18 19 20 21 22 23 24 25 26 27 28 29 30 31 32 33 34 35 36 37 38 39 40 41 42 43 44 45 46 47 48 49 50
000
ASUS43 KLOT 262009
RWRIL

ILLINOIS REGIONAL WEATHER ROUNDUP
NATIONAL WEATHER SERVICE CHICAGO/ROMEOVILLE IL
300 PM CDT TUE SEP 26 2017

NOTE: "FAIR" INDICATES FEW OR NO CLOUDS BELOW 12,000 FEET WITH NO
SIGNIFICANT WEATHER AND/OR OBSTRUCTIONS TO VISIBILITY.

* THESE STATIONS ARE NOT UNDER NWS QUALITY CONTROL. THEY ALSO MAY NOT
  REPORT WEATHER SUCH AS PRECIPITATION OR FOG.

ILZ001-002-007-009-015-016-024-262100-
NORTHWEST ILLINOIS

CITY           SKY/WX    TMP DP  RH WIND       PRES   REMARKS
MOLINE         CLOUDY    79  66  64 W12       29.95R HX  81
STERLING*      MOSUNNY   87  67  51 W15G22    29.92S HX  90
SAVANNA*       CLOUDY    80  67  63 W7        29.94R HX  82
$$

ILZ003-004-008-010-011-017-018-262100-
NORTH CENTRAL ILLINOIS

CITY           SKY/WX    TMP DP  RH WIND       PRES   REMARKS
ROCKFORD       CLOUDY    82  65  56 VRB5      29.92S HX  84
FREEPORT*      CLOUDY    82  66  57 W10       29.95R HX  84
ROCHELLE*      PTSUNNY   88  62  41 SW13G22   29.91F HX  88
DE KALB*       MOSUNNY   89  63  41 SW16      29.92F HX  90
PERU*          MOSUNNY   88  61  40 SW12      29.92S HX  88
$$

ILZ005-006-012>014-019>023-262100-
NORTHEAST ILLINOIS

CITY           SKY/WX    TMP DP  RH WIND       PRES   REMARKS
CHICAGO-OHARE  PTSUNNY   90  59  35 SW18      29.90F HX  89
CHICAGO-MIDWAY PTSUNNY   92  59  33 SW17      29.91F HX  91
AURORA         SUNNY     88  61  40 SW13      29.92F HX  88
LANSING*       MOSUNNY   89  64  42 SW9G17    29.92F HX  90
JOLIET*        MOSUNNY   92  61  35 SW12G18   29.91F HX  92
WAUKEGAN       PTSUNNY   88  65  46 SW10      29.89F HX  90
DUPAGE AIRPORT SUNNY     88  61  40 SW16G23   29.91F HX  88
KANKAKEE*      MOSUNNY   90  60  36 S9        29.94F HX  90
WHEELING       MOSUNNY   92  60  34 SW12G21   29.91F HX  91
MORRIS*        MOSUNNY   91  60  35 SW12G21   29.91S HX  90
ROMEOVILLE*    MOSUNNY   89  59  36 SW10G21   29.92S HX  88
NORTHERLY ISL    N/A     89  55  31 SW6         N/A  HX  87
$$

LMZ740>746-262100-
SOUTHERN LAKE MICHIGAN

STATION/POSITION SKY/WX   TEMP    WIND        PRES    VSBY  WAVE
                          AIR SEA DIR/SP/G                  HT/PER
                          (F)     (DEG/KT/KT) (MB)    (MI)  (FT/S)
SOUTHERN BUOY              73 71  160/ 10/ 12 1013.1          1
WILMETTE HARBOR            81 72  220/  8/ 12   N/A           1/ 2
HARRISON CRIB              88     210/ 16/ 20   N/A
BURNHAM HARBOR             90     250/  7/ 16   N/A
CALUMET HARBOR             89     190/  7/ 14 1012.4F
BURNS HARBOR               85     230/ 12/ 19 1013.5F
MICHIGAN CITY              86     210/ 10/ 12   N/A
MICHIGAN CITY 6N           81 74  240/  6/  8   N/A           1
ST. JOSEPH                 79 74  290/  4/  4 1013.1          1
$$

ILZ025>027-034>036-040-047-049-050-058-095>099-262100-
WEST-CENTRAL ILLINOIS

CITY           SKY/WX    TMP DP  RH WIND       PRES   REMARKS
QUINCY         MOSUNNY   83  65  54 W12       29.96R HX  85
GALESBURG*     PTSUNNY   85  67  54 W10       29.95S HX  87
MACOMB*        MOSUNNY   88  61  40 SW10G16   29.96S HX  88
JACKSONVILLE*  MOSUNNY   90  61  37 SW7       29.93F HX  89
PITTSFIELD*    PTSUNNY   88  65  46 S5        29.95F HX  90
$$

ILZ028>032-037-038-041>044-048-051>054-059>061-262100-
CENTRAL ILLINOIS

CITY           SKY/WX    TMP DP  RH WIND       PRES   REMARKS
PONTIAC        MOSUNNY   92  60  34 SW15      29.93F HX  91
BLOOMINGTON    MOSUNNY   89  61  38 W10       29.95F HX  89
DECATUR        SUNNY     91  59  33 SW14      29.94F HX  90
PEORIA         MOSUNNY   91  63  39 SW9       29.92F HX  92
LACON*         MOSUNNY   85  65  50 S5        29.92F HX  87
LINCOLN*       PTSUNNY   92  62  36 SW8       29.93F HX  92
SPRINGFIELD    SUNNY     91  61  36 S8        29.93F HX  91
TAYLORVILLE    SUNNY     92  58  32 S8        29.94F HX  90
$$

ILZ033-039-045-046-055>057-062-063-262100-
EAST-CENTRAL ILLINOIS

CITY           SKY/WX    TMP DP  RH WIND       PRES   REMARKS
CHAMPAIGN      MOSUNNY   89  57  33 SW7       29.96F HX  88
RANTOUL*       MOSUNNY   91  63  38 W10       29.95F HX  92
MATTOON        PTSUNNY   89  61  38 S8G16     29.94F HX  89
PARIS*         CLOUDY    93  62  36 S6        29.96F HX  93
$$

ILZ079-100>102-262100-
SOUTHWEST ILLINOIS

CITY           SKY/WX    TMP DP  RH WIND       PRES   REMARKS
ALTON          MOSUNNY   90  64  43 W8        29.95F HX  91
BELLEVILLE     MOSUNNY   92  59  32 W8        29.93F HX  91
SPARTA*        MOSUNNY   90  61  37 S7        29.96F HX  89
$$

ILZ064>066-069>071-074>076-080>082-084>086-088>090-092>094-262100-
SOUTH-CENTRAL ILLINOIS

CITY           SKY/WX    TMP DP  RH WIND       PRES   REMARKS
CARBONDALE     SUNNY     89  65  44 SW8       29.95F HX  91
CAIRO*         SUNNY     88  67  50 CALM      29.94F HX  91
EFFINGHAM*     MOSUNNY   89  60  37 S5        29.96F HX  89
MARION         MOSUNNY   91  63  38 SW7       29.98S HX  92
MT. VERNON     MOSUNNY   90  63  40 VRB5      29.95F HX  91
CENTRALIA*     PTSUNNY   91  64  40 CALM      29.95F HX  92
SALEM*         MOSUNNY   91  59  33 S8        29.95F HX  90
METROPOLIS*    SUNNY     91  65  42 SW5       29.95F HX  92
$$

ILZ067-068-072-073-078-083-087-091-262100-
SOUTHEAST ILLINOIS

CITY           SKY/WX    TMP DP  RH WIND       PRES   REMARKS
LAWRENCEVILLE  SUNNY     90  63  40 SE5       29.95F HX  91
FLORA*         MOSUNNY   93  59  31 SW8       29.95F HX  93
FAIRFIELD*     SUNNY     89  60  37 CALM      29.94F HX  89
HARRISBURG*    SUNNY     91  64  40 W5        29.95F HX  93
ROBINSON*      PTSUNNY   91  62  38 SW8       29.95F HX  91
CARMI*         PTSUNNY   93  62  36 NW6       29.94F HX  93
$$

ABBREVIATIONS USED IN REMARKS
   TC - TEMPERATURE IN CELSIUS
  WCI - WIND CHILL INDEX
   HX - HEAT INDEX
  VSB - VISIBILITY
$$





USA.gov is the U.S. government's official web portal to all federal, state and local government web resources and services.